Hourly Data Report for September 28, 2017

All times are specified in Local Standard Time (LST). Add 1 hour to adjust for Daylight Saving Time where and when it is observed.

PENTICTON A
BRITISH COLUMBIA

49°27'45.000" N
119°36'08.000" W
344.40 m
1126146
71889
YYF

Download Data

Hourly Data (September 2017)
Hourly Data Report for September 28, 2017
Temp Definition
°C
Dew Point Temp Definition
°C
Rel Hum Definition
%
Wind Dir Definition
10's deg

Wind Spd Definition
km/h
Visibility Definition
km
Stn Press Definition
kPa
Hmdx Definition


Wind Chill Definition


Weather Definition


TIME
00:00 Legend Double Dagger 7.5 5.0 84 35 7 24.1 98.01     LegendNANA
01:00 Legend Double Dagger 8.6 6.1 84 1 4 24.1 98.02     Clear
02:00 Legend Double Dagger 6.2 4.4 88 0 1 24.1 98.02     LegendNANA
03:00 Legend Double Dagger 6.7 5.0 90 29 4 24.1 98.02     LegendNANA
04:00 Legend Double Dagger 6.3 3.6 83 36 2 24.1 98.02     Clear
05:00 Legend Double Dagger 6.0 4.4 90 4 4 24.1 98.01     LegendNANA
06:00 Legend Double Dagger 4.8 3.3 90 35 3 24.1 98.01     LegendNANA
07:00 Legend Double Dagger 6.2 5.1 92 36 1 24.1 98.02     Clear
08:00 Legend Double Dagger 13.1 7.4 68 0 1 24.1 97.98     LegendNANA
09:00 Legend Double Dagger 15.3 8.0 61 10 3 24.1 97.94     LegendNANA
10:00 Legend Double Dagger 16.9 9.3 61 19 9 24.1 97.88     Clear
11:00 Legend Double Dagger 19.3 8.2 48 34 6 24.1 97.76     LegendNANA
12:00 Legend Double Dagger 20.9 7.6 42 25 3 24.1 97.66     LegendNANA
13:00 Legend Double Dagger 24.1 7.9 35 22 5 24.1 97.52     Clear
14:00 Legend Double Dagger 25.6 8.9 34 14 18 24.1 97.41 26   LegendNANA
15:00 Legend Double Dagger 25.7 8.4 33 18 19 24.1 97.34 26   LegendNANA
16:00 Legend Double Dagger 25.3 7.7 32 17 13 24.1 97.28 26   Clear
17:00 Legend Double Dagger 22.7 8.2 39 16 8 24.1 97.23     LegendNANA
18:00 Legend Double Dagger 22.3 7.8 39 14 12 24.1 97.25     LegendNANA
19:00 Legend Double Dagger 21.5 6.8 38 15 4 24.1 97.25     Clear
20:00 Legend Double Dagger 16.1 6.4 52   0 24.1 97.28     LegendNANA
21:00 Legend Double Dagger 15.6 6.2 53 22 3 24.1 97.26     LegendNANA
22:00 Legend Double Dagger 15.2 6.4 55 4 5 24.1 97.26     Clear
23:00 Legend Double Dagger 13.4 6.5 63 35 5 24.1 97.27     LegendNANA

Notes on Data Quality.

Legend

  • E = Estimated
  • M = Missing
  • NA = Not Available
  • ‡ = Partner data that is not subject to review by the National Climate Archives
Date modified: